Terminal Aerodrome Forecast
Issued by NWS Sterling, VA

Current Version | Previous Version | Graphics & Text | Print | Product List | Glossary On
Versions: 1 2 3 4 5 6 7 8 9 10 11 12 13 14 15 16 17 18 19 20 21 22 23 24 25
000
FTUS41 KLWX 010350 AAA
TAFDCA
TAF AMD
KDCA 010350Z 0104/0124 21008KT P6SM -SHRA OVC045
     FM010600 26010G19KT P6SM -SHRA BKN045
     FM010700 27010KT P6SM BKN050
     FM010800 28010KT P6SM SCT100=

USA.gov is the U.S. government's official web portal to all federal, state and local government web resources and services.